Theta_e
325 326 327 328 328 329 331 334 335 338 339 339 342 344 344 345 343 343 344 345 344 343 344 347 351 351 350 348 347 345 342 337 334
324 326 326 327 329 330 333 335 336 338 340 340 342 343 344 344 343 343 344 346 346 345 344 346 349 350 348 347 346 342 338 334 332
324 325 326 326 328 331 334 337 338 340 341 340 342 344 345 345 344 344 346 346 345 345 344 345 347 348 347 345 343 340 337 333 329
322 323 325 326 329 331 335 338 340 340 341 340 341 344 345 345 345 345 346 346 346 346 345 344 345 346 346 343 340 336 333 331 329
331 332 325 327 329 330 334 337 339 340 342 341 341 344 346 346 346 346 346 346 347 347 345 346 346 346 344 342 339 335 331 328 327
323 333 334 327 328 330 334 337 339 340 342 344 344 344 345 347 348 347 346 347 347 347 347 346 347 345 343 339 336 334 330 327 324
321 324 332 336 333 329 333 337 338 340 341 344 344 345 345 345 346 350 349 349 348 347 347 346 346 345 344 339 335 334 329 325 322
318 318 318 324 336 338 335 335 336 339 341 344 343 345 345 346 347 348 352 350 349 347 348 347 346 344 343 339 335 332 328 324 321
317 317 319 319 320 328 340 343 345 347 341 342 345 344 338 334 346 348 348 351 349 348 347 347 345 343 340 335 335 331 330 325 320
318 320 321 321 323 322 324 330 339 344 346 345 344 345 346 344 347 348 349 350 349 348 346 346 343 341 339 335 336 330 329 327 320
319 322 324 326 327 329 331 329 337 343 343 344 345 345 346 348 349 350 350 344 346 348 348 345 343 341 339 336 334 328 327 328 319
321 321 322 324 328 330 335 338 339 338 340 343 344 345 346 348 350 351 337 332 335 347 347 345 342 340 337 334 331 325 325 324 318
324 324 325 334 338 338 335 336 337 336 340 343 344 345 348 351 352 352 351 346 345 349 347 344 342 338 337 333 331 324 323 322 318
331 331 339 341 338 336 336 337 335 333 337 340 345 348 349 352 352 350 353 353 352 346 341 338 336 335 335 335 332 326 320 318 319
325 330 333 340 336 334 334 335 335 333 332 339 344 346 344 345 348 349 347 344 340 340 338 334 333 332 329 329 331 325 319 318 318
318 317 318 329 333 332 331 333 334 334 335 336 341 342 343 343 343 345 345 343 336 335 334 332 330 328 325 323 324 323 319 316 317
310 310 310 313 316 320 324 327 331 333 334 336 338 339 340 341 341 339 340 339 336 333 332 331 329 327 326 324 321 322 322 320 318
307 308 309 309 309 311 314 318 320 324 331 335 335 338 339 340 340 336 335 337 334 334 335 331 330 330 329 325 320 322 320 318 319
306 306 307 309 310 310 311 313 315 318 326 334 335 335 334 336 338 335 333 331 324 313 316 317 313 313 323 328 320 310 307 306 306
310 311 311 311 312 312 312 313 314 318 323 332 334 334 336 338 332 333 330 329 327 323 316 309 310 309 312 312 311 306 304 303 303
Wind_Speed
12 17 14 15 15 16 15 16 15 15 15 13 12 13 13 11 9 7 6 7 5 6 6 6 7 7 6 6 6 6 5 3 4
10 14 15 17 15 16 15 16 18 17 15 14 14 15 11 11 9 9 9 9 8 6 5 5 7 7 7 7 7 7 7 4 4
2 5 7 7 12 14 15 14 14 15 15 17 16 15 12 11 12 11 9 8 10 9 8 8 9 8 8 8 7 7 7 5 5
1 6 8 7 8 6 6 8 12 12 12 13 12 13 12 11 11 11 10 10 10 11 9 10 10 10 10 9 9 7 7 7 7
7 5 4 10 9 9 10 10 9 10 10 11 13 12 12 13 11 10 11 11 11 9 10 10 11 10 11 11 10 10 9 9 8
8 9 8 3 7 10 12 14 14 16 14 12 7 6 8 9 11 11 13 12 11 10 10 11 10 11 12 12 11 11 9 9 9
8 8 8 6 7 4 5 8 10 11 11 10 7 10 12 10 11 12 12 12 12 12 12 12 12 12 12 12 12 11 10 9 8
10 10 10 8 7 5 3 4 4 2 5 9 9 9 9 18 13 10 10 10 11 11 13 13 13 13 12 12 11 9 11 10 9
5 6 7 8 6 7 7 7 9 9 1 7 10 14 15 7 11 11 11 11 11 12 13 12 13 13 13 13 10 16 18 15 11
6 5 4 3 3 3 5 2 9 13 5 4 10 14 15 11 9 14 16 13 13 15 16 13 15 15 15 15 12 20 21 21 10
7 4 2 5 3 4 4 7 9 8 6 6 7 11 16 14 16 19 17 15 18 19 16 19 16 15 14 13 12 26 25 25 13
6 5 5 5 5 5 7 7 7 6 7 7 7 9 13 14 15 17 16 16 12 13 16 17 18 19 19 18 15 27 27 23 16
8 8 6 6 6 5 2 3 4 8 11 10 10 9 8 7 11 16 17 18 17 16 16 14 9 8 13 20 18 24 23 17 9
4 4 4 3 5 5 6 7 8 8 7 8 10 11 11 3 7 11 14 13 10 6 5 2 6 5 9 10 14 19 25 19 10
4 5 6 4 2 4 6 6 4 6 6 5 7 8 9 9 4 5 6 10 7 9 7 8 6 9 10 12 2 6 13 16 11
5 6 5 4 4 6 6 6 4 5 5 5 5 5 6 5 5 2 7 10 8 8 9 10 10 11 10 9 7 8 22 3 11
5 3 4 2 4 5 7 5 6 6 6 5 4 3 3 3 4 5 1 2 2 3 6 6 8 11 11 7 4 4 10 14 14
3 4 3 4 5 6 7 7 8 8 6 4 4 5 5 3 3 3 3 3 4 8 8 8 9 9 11 13 12 14 19 11 11
2 3 3 3 4 5 7 7 7 9 7 5 4 6 4 4 3 3 3 3 2 7 6 8 6 6 9 9 10 16 16 16 14
4 2 2 3 5 6 6 7 8 11 6 7 6 7 5 3 4 4 5 5 5 5 3 2 7 11 10 10 10 16 18 18 18
Wind_Direction
181 189 193 197 191 187 185 182 178 180 184 184 185 186 194 191 175 183 186 181 175 189 192 190 176 180 168 172 174 161 156 145 151
178 187 191 194 195 188 182 181 182 182 183 187 186 193 191 188 178 178 188 186 183 184 181 182 178 176 173 184 171 163 155 155 155
159 216 226 209 193 190 190 183 177 174 183 190 189 190 192 193 187 189 186 181 190 190 191 176 172 178 181 175 169 162 154 155 154
35 215 204 201 202 185 194 176 171 177 181 192 195 192 194 191 192 189 182 194 201 197 184 181 182 182 178 175 171 164 158 160 160
357 351 223 185 174 155 143 151 160 186 197 196 193 193 190 196 192 184 190 198 203 197 195 185 185 177 179 178 173 169 171 168 168
357 2 2 76 143 156 164 172 173 184 183 187 166 170 200 203 200 192 199 206 200 194 198 191 185 179 185 179 177 173 175 174 170
17 24 18 54 70 107 170 187 191 198 186 163 151 181 185 200 209 207 208 202 201 199 197 194 192 192 190 184 176 174 168 164 164
28 15 19 17 29 26 37 23 355 291 131 161 200 181 174 211 195 207 211 214 212 207 200 197 194 191 191 183 174 172 165 166 166
26 6 353 356 3 25 47 56 35 333 151 217 195 207 214 219 184 185 204 205 203 203 202 207 189 194 189 180 184 170 167 164 168
313 330 338 12 359 19 354 340 128 246 221 179 206 215 235 238 212 192 192 191 190 206 201 198 201 190 188 187 182 165 168 174 167
288 289 334 320 307 298 215 190 213 231 242 212 202 224 220 209 202 208 212 213 209 203 200 199 200 193 188 180 182 170 173 172 167
247 259 262 256 269 283 307 322 326 323 326 314 288 261 233 216 206 208 215 228 238 209 204 207 201 190 179 178 182 178 176 174 172
226 228 228 226 227 206 213 318 340 16 4 354 347 325 276 203 193 203 215 228 240 224 226 228 215 209 197 188 181 188 179 163 170
228 237 257 328 6 353 330 339 352 0 350 358 332 328 328 242 203 205 211 215 223 216 190 136 134 92 323 234 199 186 170 159 166
287 282 293 275 283 293 299 294 308 331 334 319 330 337 344 333 256 198 177 151 151 164 139 112 122 129 121 279 227 327 165 147 145
268 294 311 326 297 289 273 268 264 302 297 328 329 335 336 331 313 263 164 166 158 162 167 170 162 153 169 223 188 159 131 141 176
249 266 282 255 280 281 293 307 288 247 288 296 300 305 301 298 285 271 216 76 127 206 185 178 175 162 154 190 233 163 164 184 182
287 296 325 341 327 309 293 299 299 299 275 244 280 299 288 265 233 236 222 191 188 202 198 194 182 206 166 173 186 191 183 201 178
248 317 328 333 293 278 290 300 298 295 285 235 226 277 280 269 255 217 205 187 197 16 350 269 211 203 171 195 214 157 149 157 158
215 229 310 323 302 287 286 294 298 296 289 241 216 236 246 246 232 198 197 201 198 196 25 328 195 207 207 210 179 162 157 165 168